GW4072 Weather Reports


time (UTC)temp
F
wind
direction
speed
knots
gust
knots
rain 1hr
in
rain 24hr
in
rain mn
in
humidity
%
barometer
mb
20260505212528 42 323 2.6 9.6 0.00 0.00 0.00 48 1011.9
20260505212031 42 326 2.6 9.6 0.00 0.00 0.00 49 1011.8
20260505211552 42 330 2.6 7.0 0.00 0.00 0.00 48 1011.7
20260505211028 42 30 0.9 8.7 0.00 0.00 0.00 50 1011.7
20260505210532 42 0 2.6 8.7 0.00 0.00 0.00 50 1011.7
20260505210047 42 288 1.7 8.7 0.00 0.00 0.00 48 1011.7
20260505205529 42 268 2.6 7.8 0.00 0.00 0.00 49 1011.7
20260505205028 42 264 2.6 8.7 0.00 0.00 0.00 49 1011.7
20260505204546 42 274 1.7 8.7 0.00 0.00 0.00 49 1011.8
20260505204028 42 293 2.6 9.6 0.00 0.00 0.00 48 1011.7
20260505203528 42 329 2.6 9.6 0.00 0.00 0.00 48 1011.8
20260505203100 42 273 4.3 9.6 0.00 0.00 0.00 48 1011.7
20260505202528 42 245 2.6 7.0 0.00 0.00 0.00 48 1011.7
20260505202027 42 321 3.5 7.8 0.00 0.00 0.00 48 1011.8
20260505201540 42 277 3.5 9.6 0.00 0.00 0.00 47 1011.8
20260505201028 42 307 3.5 9.6 0.00 0.00 0.00 47 1011.7
20260505200528 43 282 1.7 8.7 0.00 0.00 0.00 47 1011.7
20260505200041 43 252 1.7 8.7 0.00 0.00 0.00 47 1011.8
20260505195528 42 226 3.5 11.3 0.00 0.00 0.00 47 1011.7
20260505195031 43 274 4.3 11.3 0.00 0.00 0.00 46 1011.8
20260505194547 43 340 2.6 13.0 0.00 0.00 0.00 46 1011.7
20260505194029 43 312 5.2 13.0 0.00 0.00 0.00 46 1011.8
20260505193531 42 297 4.3 9.6 0.00 0.00 0.00 46 1011.7
20260505193045 43 314 3.5 7.8 0.00 0.00 0.00 47 1011.8
20260505192528 42 323 2.6 7.8 0.00 0.00 0.00 47 1011.6
20260505192028 42 283 3.5 7.8 0.00 0.00 0.00 46 1011.6
20260505191550 42 261 2.6 7.8 0.00 0.00 0.00 47 1011.6
20260505191029 43 297 1.7 7.8 0.00 0.00 0.00 47 1011.6
20260505190529 42 63 2.6 6.1 0.00 0.00 0.00 46 1011.6
20260505190044 42 300 3.5 7.0 0.00 0.00 0.00 46 1011.5
20260505185528 42 276 1.7 7.0 0.00 0.00 0.00 47 1011.5
20260505185026 42 293 2.6 7.8 0.00 0.00 0.00 47 1011.4
20260505184548 42 342 2.6 7.8 0.00 0.00 0.00 48 1011.5
20260505184026 42 15 2.6 7.0 0.00 0.00 0.00 48 1011.4
20260505183525 42 330 3.5 8.7 0.00 0.00 0.00 47 1011.4
20260505183048 42 319 1.7 8.7 0.00 0.00 0.00 48 1011.3
20260505182531 42 340 2.6 7.0 0.00 0.00 0.00 47 1011.2
20260505182028 42 2 1.7 7.0 0.00 0.00 0.00 48 1011.3
20260505181544 42 323 1.7 7.8 0.00 0.00 0.00 48 1011.2
20260505181031 41 284 1.7 7.8 0.00 0.00 0.00 49 1011.4
20260505180532 41 295 2.6 9.6 0.00 0.00 0.00 48 1011.3
20260505180047 41 265 3.5 9.6 0.00 0.00 0.00 48 1011.2
20260505175529 42 258 3.5 7.0 0.00 0.00 0.00 49 1011.2
20260505175028 41 264 0.9 7.0 0.00 0.00 0.00 50 1011.2
20260505174543 41 357 3.5 7.8 0.00 0.00 0.00 49 1011.1
20260505174027 41 296 1.7 7.8 0.00 0.00 0.00 49 1011.1
20260505173525 41 290 1.7 7.8 0.00 0.00 0.00 51 1011.2
20260505173047 40 307 2.6 8.7 0.00 0.00 0.00 51 1011.2
20260505172524 40 297 2.6 10.4 0.00 0.00 0.00 52 1011.2
20260505172027 40 302 2.6 10.4 0.00 0.00 0.00 51 1011.2
20260505171547 40 253 2.6 10.4 0.00 0.00 0.00 50 1011.1
20260505171028 40 297 2.6 10.4 0.00 0.00 0.00 51 1011.2
20260505170528 40 311 1.7 7.8 0.00 0.00 0.00 50 1011.2
20260505170047 40 302 2.6 13.0 0.00 0.00 0.00 51 1011.1
20260505165525 40 308 4.3 13.0 0.00 0.00 0.00 51 1011.1
20260505165025 41 316 2.6 6.1 0.00 0.00 0.00 51 1011.0
20260505164548 41 292 1.7 10.4 0.00 0.00 0.00 52 1011.0
20260505164028 40 172 2.6 12.2 0.00 0.00 0.00 52 1011.0
20260505163528 40 278 4.3 12.2 0.00 0.00 0.00 50 1011.0
20260505163049 41 332 2.6 7.0 0.00 0.00 0.00 52 1011.0
20260505162528 41 65 2.6 10.4 0.00 0.00 0.00 53 1010.8
20260505162028 40 87 1.7 10.4 0.00 0.00 0.00 54 1010.8
20260505161543 39 234 4.3 9.6 0.00 0.00 0.00 55 1011.0
20260505161031 39 262 2.6 9.6 0.00 0.00 0.00 55 1010.9
20260505160526 39 286 3.5 9.6 0.00 0.00 0.00 56 1010.8
20260505153051 39 349 2.6 9.6 0.00 0.00 0.00 56 1010.8
20260505152528 39 292 3.5 8.7 0.00 0.00 0.00 55 1010.8
20260505152030 39 294 2.6 8.7 0.00 0.00 0.00 56 1010.6
20260505151547 38 32 3.5 8.7 0.00 0.00 0.00 55 1010.7
20260505151028 38 325 2.6 7.0 0.00 0.00 0.00 56 1010.6
20260505150529 38 300 2.6 8.7 0.00 0.00 0.00 55 1010.5
20260505140530 38 6 1.7 6.1 0.00 0.00 0.00 55 1010.2
20260505125028 34 299 1.7 6.1 0.00 0.00 0.00 58 1009.7
20260505124543 34 267 1.7 7.0 0.00 0.00 0.00 58 1009.5
20260505124027 34 86 1.7 7.0 0.00 0.00 0.00 58 1009.5
20260505123527 34 310 1.7 7.0 0.00 0.00 0.00 58 1009.4
20260505123045 34 317 0.9 7.8 0.00 0.00 0.00 59 1009.5
20260505122528 34 340 1.7 7.8 0.00 0.00 0.00 58 1009.3
20260505122028 34 16 0.9 5.2 0.00 0.00 0.00 59 1009.3
20260505121548 34 290 0.9 3.5 0.00 0.00 0.00 59 1009.2
20260505121028 34 288 0.0 1.7 0.00 0.00 0.00 59 1009.1
20260505120531 34 0 0.9 3.5 0.00 0.00 0.00 59 1009.0
20260505120040 34 273 0.9 3.5 0.00 0.00 0.00 59 1009.0
20260505115528 34 320 0.9 5.2 0.00 0.00 0.00 59 1008.9
20260505115028 33 294 1.7 5.2 0.00 0.00 0.00 58 1008.8
20260505114541 33 0 0.9 6.1 0.00 0.00 0.00 59 1008.7
20260505114028 33 294 1.7 6.1 0.00 0.00 0.00 59 1008.7
20260505113527 33 231 0.0 5.2 0.00 0.00 0.00 59 1008.6
20260505113052 33 290 0.9 5.2 0.00 0.00 0.00 59 1008.6
20260505112527 33 297 0.9 5.2 0.00 0.00 0.00 59 1008.5
20260505112028 33 270 0.9 5.2 0.00 0.00 0.00 59 1008.4
20260505111548 33 0 0.9 5.2 0.00 0.00 0.00 59 1008.5
20260505111029 33 297 0.9 4.3 0.00 0.00 0.00 58 1008.4
20260505110529 33 278 0.0 3.5 0.00 0.00 0.00 59 1008.3
20260505102029 33 292 0.0 3.5 0.00 0.00 0.00 59 1008.4
20260505101544 33 332 0.0 5.2 0.00 0.00 0.00 59 1008.3
20260505101029 33 321 0.9 5.2 0.00 0.00 0.00 59 1008.3
20260505100529 33 328 0.9 5.2 0.00 0.00 0.00 59 1008.4
20260505100041 33 298 0.9 5.2 0.00 0.00 0.00 59 1008.4
20260505095528 33 32 0.9 4.3 0.00 0.00 0.00 59 1008.3
20260505095027 33 330 0.9 4.3 0.00 0.00 0.00 59 1008.3
20260505094557 33 289 1.7 5.2 0.00 0.00 0.00 59 1008.3
20260505094027 33 313 0.9 5.2 0.00 0.00 0.00 59 1008.2
20260505093530 33 317 0.9 5.2 0.00 0.00 0.00 59 1008.3
20260505093217 33 262 0.9 4.3 0.00 0.00 0.00 59 1008.3
20260505092527 33 214 0.9 6.1 0.00 0.00 0.00 58 1008.3
20260505092026 33 285 1.7 6.1 0.00 0.00 0.00 59 1008.3
20260505091542 33 316 0.9 4.3 0.00 0.00 0.00 59 1008.2
20260505091029 33 271 0.0 4.3 0.00 0.00 0.00 59 1008.2
20260505090528 33 287 0.9 5.2 0.00 0.00 0.00 59 1008.2
20260505090057 33 324 1.7 5.2 0.00 0.00 0.00 59 1008.0
20260505085528 33 281 0.9 6.1 0.00 0.00 0.00 58 1008.0
20260505085030 34 291 0.9 6.1 0.00 0.00 0.00 57 1008.0
20260505084548 34 281 1.7 6.1 0.00 0.00 0.00 57 1008.0
20260505084027 34 0 0.9 7.0 0.00 0.00 0.00 57 1007.9
20260505083531 34 319 1.7 7.0 0.00 0.00 0.00 57 1007.7
20260505083102 34 352 0.0 3.5 0.00 0.00 0.00 58 1007.8
20260505082527 34 276 0.9 6.1 0.00 0.00 0.00 58 1007.6
20260505082027 34 303 1.7 6.1 0.00 0.00 0.00 57 1007.6
20260505081547 34 0 0.9 6.1 0.00 0.00 0.00 57 1007.6
20260505081028 35 273 1.7 6.1 0.00 0.00 0.00 57 1007.6
20260505080527 35 305 2.6 6.1 0.00 0.00 0.00 58 1007.7
20260505080046 35 256 0.9 5.2 0.00 0.00 0.00 59 1007.6
20260505075525 35 271 0.9 4.3 0.00 0.00 0.00 60 1007.6
20260505075027 35 307 0.9 4.3 0.00 0.00 0.00 60 1007.5
20260505074542 35 290 0.0 4.3 0.00 0.00 0.00 61 1007.6
20260505074027 35 268 1.7 4.3 0.00 0.00 0.00 61 1007.5
20260505073526 35 256 0.0 5.2 0.00 0.00 0.00 61 1007.5
20260505073050 36 0 1.7 5.2 0.00 0.00 0.00 60 1007.5
20260505072527 36 297 0.9 5.2 0.00 0.00 0.00 59 1007.5
20260505072027 36 280 0.9 3.5 0.00 0.00 0.00 59 1007.5
20260505071545 36 287 0.9 5.2 0.00 0.00 0.00 60 1007.4
20260505071028 36 297 0.9 5.2 0.00 0.00 0.00 60 1007.4
20260505070528 36 303 0.9 5.2 0.00 0.00 0.00 61 1007.3
20260505070100 37 310 1.7 6.1 0.00 0.00 0.00 61 1007.4
20260505065527 37 313 0.9 6.1 0.00 0.00 0.00 61 1007.4
20260505065027 37 259 1.7 7.0 0.00 0.00 0.00 61 1007.3
20260505064554 37 303 1.7 7.0 0.00 0.00 0.00 62 1007.4
20260505064027 37 248 0.9 5.2 0.00 0.00 0.00 63 1007.4
20260505063527 37 81 0.9 5.2 0.00 0.00 0.00 64 1007.3
20260505063044 37 286 0.0 6.1 0.00 0.00 0.00 63 1007.3
20260505062527 37 260 0.9 6.1 0.00 0.00 0.00 63 1007.3
20260505062027 37 269 1.7 6.1 0.00 0.00 0.00 62 1007.3
20260505061608 38 265 0.9 7.0 0.00 0.00 0.00 62 1007.2
20260505061029 38 269 1.7 7.0 0.00 0.00 0.00 62 1007.0
20260505060527 38 288 1.7 4.3 0.00 0.00 0.00 62 1007.2
20260505060048 38 303 0.9 7.0 0.00 0.00 0.00 62 1007.2
20260505055527 38 264 2.6 8.7 0.00 0.00 0.00 61 1007.3
20260505055027 38 346 1.7 8.7 0.00 0.00 0.00 61 1007.1
20260505054547 39 258 1.7 8.7 0.00 0.00 0.00 61 1007.1
20260505054027 39 308 2.6 7.0 0.00 0.00 0.00 61 1007.0
20260505053530 39 300 1.7 4.3 0.00 0.00 0.00 61 1006.9
20260505053042 39 274 0.9 4.3 0.00 0.00 0.00 62 1006.8
20260505052529 38 259 0.9 4.3 0.00 0.00 0.00 62 1006.8
20260505052029 38 285 1.7 9.6 0.00 0.00 0.00 62 1006.8
20260505051538 38 298 0.9 9.6 0.00 0.00 0.00 62 1006.7
20260505051030 38 261 1.7 6.1 0.00 0.00 0.00 62 1006.6
20260505050529 38 0 0.9 5.2 0.00 0.00 0.00 63 1006.6
20260505041548 40 297 0.9 4.3 0.00 0.00 0.00 61 1006.5
20260505041029 40 352 1.7 5.2 0.00 0.00 0.00 61 1006.6
20260505040532 40 299 0.9 7.0 0.00 0.00 0.00 60 1006.7
20260505040059 40 316 1.7 7.0 0.00 0.00 0.00 60 1006.6
20260505035533 40 301 1.7 7.0 0.00 0.00 0.00 59 1006.6
20260505035029 41 302 1.7 7.0 0.00 0.00 0.00 58 1006.6
20260505034544 41 79 2.6 9.6 0.00 0.00 0.00 58 1006.5
20260505034029 41 311 1.7 9.6 0.00 0.00 0.00 57 1006.5
20260505033529 41 327 2.6 9.6 0.00 0.00 0.00 57 1006.5
20260505033041 41 250 2.6 7.8 0.00 0.00 0.00 56 1006.5
20260505032529 42 293 2.6 11.3 0.00 0.00 0.00 55 1006.4
20260505032033 42 300 1.7 11.3 0.00 0.00 0.00 55 1006.4
20260505031549 42 285 4.3 11.3 0.00 0.00 0.00 54 1006.5
20260505031030 42 295 3.5 8.7 0.00 0.00 0.00 54 1006.5
20260505030529 42 289 2.6 7.8 0.00 0.00 0.00 54 1006.4
20260505030047 42 318 2.6 7.8 0.00 0.00 0.00 54 1006.4
20260505025532 42 236 1.7 5.2 0.00 0.00 0.00 54 1006.3
20260505025033 42 297 1.7 7.0 0.00 0.00 0.00 55 1006.2
20260505024545 43 302 1.7 7.0 0.00 0.00 0.00 54 1006.1
20260505024029 43 340 1.7 7.8 0.00 0.00 0.00 54 1006.1
20260505023529 43 276 2.6 7.8 0.00 0.00 0.00 53 1006.1
20260505023047 43 279 1.7 7.8 0.00 0.00 0.00 53 1006.0
20260505022529 43 317 2.6 6.1 0.00 0.00 0.00 53 1006.0
20260505022029 43 274 1.7 6.1 0.00 0.00 0.00 53 1006.0
20260505021543 43 288 0.9 6.1 0.00 0.00 0.00 53 1005.8
20260505021032 43 233 2.6 7.8 0.00 0.00 0.00 53 1005.7
20260505020529 43 304 1.7 7.8 0.00 0.00 0.00 52 1005.7
20260505020042 43 261 1.7 7.8 0.00 0.00 0.00 53 1005.6
20260505015529 43 314 2.6 7.8 0.00 0.00 0.00 53 1005.5
20260505015031 43 314 2.6 5.2 0.00 0.00 0.00 53 1005.4
20260505014549 43 278 0.9 7.8 0.00 0.00 0.00 53 1005.4
20260505014031 43 234 1.7 7.8 0.00 0.00 0.00 53 1005.3
20260505013528 43 309 1.7 6.1 0.00 0.00 0.00 52 1005.3
20260505013045 43 325 2.6 9.6 0.00 0.00 0.00 52 1005.3
20260505012529 43 295 2.6 9.6 0.00 0.00 0.00 52 1005.2
20260505012029 43 264 2.6 9.6 0.00 0.00 0.00 51 1005.2
20260505011548 43 321 2.6 7.0 0.00 0.00 0.00 51 1005.1
20260505011029 44 259 1.7 7.0 0.00 0.00 0.00 51 1005.0
20260505010529 44 246 0.9 7.0 0.00 0.00 0.00 50 1004.9
20260505010056 44 302 1.7 7.0 0.00 0.00 0.00 50 1004.9
20260505005529 44 327 2.6 7.0 0.00 0.00 0.00 49 1004.9
20260505005029 44 345 1.7 7.8 0.00 0.00 0.00 50 1005.0
20260505004543 44 343 2.6 7.8 0.00 0.00 0.00 49 1004.9
20260505004028 44 305 1.7 9.6 0.00 0.00 0.00 48 1004.8
20260505003528 45 351 0.9 9.6 0.00 0.00 0.00 47 1004.8
20260505003044 45 226 3.5 9.6 0.00 0.00 0.00 46 1004.7
20260505002529 45 264 0.9 7.0 0.00 0.00 0.00 47 1004.7
20260505002030 45 264 2.6 7.8 0.00 0.00 0.00 46 1004.7
20260505001545 45 308 2.6 7.8 0.00 0.00 0.00 45 1004.6
20260505001029 45 271 3.5 7.8 0.00 0.00 0.00 45 1004.5
20260505000528 45 264 0.9 7.8 0.00 0.00 0.00 45 1004.6
20260505000054 45 278 2.6 7.8 0.00 0.00 0.00 44 1004.5
20260504235529 45 278 1.7 6.1 0.00 0.00 0.00 44 1004.5
20260504235029 45 281 1.7 6.1 0.00 0.00 0.00 44 1004.4
20260504234543 45 301 1.7 7.0 0.00 0.00 0.00 43 1004.4
20260504234029 45 240 1.7 7.0 0.00 0.00 0.00 44 1004.4
20260504233529 45 286 2.6 8.7 0.00 0.00 0.00 44 1004.4
20260504233041 45 274 3.5 8.7 0.00 0.00 0.00 43 1004.3
20260504232529 46 346 1.7 8.7 0.00 0.00 0.00 43 1004.3
20260504232028 46 247 2.6 8.7 0.00 0.00 0.00 42 1004.3
20260504231550 46 280 2.6 11.3 0.00 0.00 0.00 42 1004.2
20260504231028 46 274 2.6 12.2 0.00 0.00 0.00 42 1004.3
20260504230529 46 241 2.6 12.2 0.00 0.00 0.00 42 1004.4
20260504230048 46 320 2.6 11.3 0.00 0.00 0.00 41 1004.1
20260504225533 46 274 1.7 13.0 0.00 0.00 0.00 41 1004.2
20260504225028 46 263 3.5 13.0 0.00 0.00 0.00 40 1004.1
20260504224545 46 319 2.6 10.4 0.00 0.00 0.00 41 1004.0
20260504224030 46 303 1.7 8.7 0.00 0.00 0.00 43 1004.0
20260504223528 46 306 2.6 10.4 0.00 0.00 0.00 43 1004.0
20260504223053 46 321 2.6 12.2 0.00 0.00 0.00 43 1004.0
20260504222529 46 349 5.2 12.2 0.00 0.00 0.00 44 1003.9
20260504222028 46 281 5.2 12.2 0.00 0.00 0.00 43 1003.9
20260504221549 46 349 3.5 14.8 0.00 0.00 0.00 45 1003.9
20260504221029 46 342 2.6 14.8 0.00 0.00 0.00 46 1003.9
20260504220529 46 259 3.5 10.4 0.00 0.00 0.00 46 1003.8
20260504220056 46 314 2.6 10.4 0.00 0.00 0.00 46 1003.8
20260504215529 46 292 3.5 10.4 0.00 0.00 0.00 46 1003.8
20260504215029 46 17 1.7 10.4 0.00 0.00 0.00 46 1003.5
20260504214546 46 275 3.5 8.7 0.00 0.00 0.00 46 1003.5
20260504214030 46 322 3.5 13.0 0.00 0.00 0.00 47 1003.6
20260504213529 46 337 4.3 13.0 0.00 0.00 0.00 46 1003.5
20260504213058 46 293 4.3 12.2 0.00 0.00 0.00 46 1003.6